Time,TemperatureF,DewpointF,PressureIn,WindDirection,WindDirectionDegrees,WindSpeedMPH,WindSpeedGustMPH,Humidity,HourlyPrecipIn,Conditions,Clouds,dailyrainin,SoftwareType,DateUTC
2013-02-28 00:01:00,27.0,8.0,30.19,WNW,287,0.0,-999.0,43,-99.99,,,-99.99,,2013-02-28 07:01:00,
2013-02-28 00:11:00,27.0,8.0,30.19,WNW,287,0.0,-999.0,43,-99.99,,,-99.99,,2013-02-28 07:11:00,
2013-02-28 00:21:00,26.0,8.0,30.19,WNW,287,0.0,-999.0,45,-99.99,,,-99.99,,2013-02-28 07:21:00,
2013-02-28 00:31:00,24.0,7.0,30.21,WNW,287,0.0,-999.0,48,-99.99,,,-99.99,,2013-02-28 07:31:00,
2013-02-28 00:41:00,24.0,7.0,30.21,WNW,287,0.0,-999.0,48,-99.99,,,-99.99,,2013-02-28 07:41:00,
2013-02-28 00:52:00,24.0,7.0,30.21,WNW,287,0.0,-999.0,48,-99.99,,,-99.99,,2013-02-28 07:52:00,
2013-02-28 01:01:00,22.0,7.0,30.22,WNW,287,1.0,-999.0,51,-99.99,,,-99.99,,2013-02-28 08:01:00,
2013-02-28 01:11:00,22.0,7.0,30.22,WNW,287,1.0,-999.0,51,-99.99,,,-99.99,,2013-02-28 08:11:00,
2013-02-28 01:21:00,22.0,7.0,30.22,WNW,287,1.0,-999.0,51,-99.99,,,-99.99,,2013-02-28 08:21:00,
2013-02-28 01:31:00,19.0,7.0,30.25,WNW,287,0.0,-999.0,59,-99.99,,,-99.99,,2013-02-28 08:31:00,
2013-02-28 01:41:00,19.0,7.0,30.25,WNW,287,0.0,-999.0,59,-99.99,,,-99.99,,2013-02-28 08:41:00,
2013-02-28 01:53:00,19.0,7.0,30.24,WNW,287,1.0,-999.0,59,-99.99,,,-99.99,,2013-02-28 08:53:00,
2013-02-28 02:03:00,18.0,7.0,30.25,WNW,287,0.0,-999.0,61,-99.99,,,-99.99,,2013-02-28 09:03:00,
2013-02-28 02:11:00,18.0,7.0,30.25,WNW,287,0.0,-999.0,61,-99.99,,,-99.99,,2013-02-28 09:11:00,
2013-02-28 02:21:00,16.0,5.0,30.26,WNW,287,1.0,-999.0,62,-99.99,,,-99.99,,2013-02-28 09:21:00,
2013-02-28 02:31:00,15.0,6.0,30.27,WNW,287,2.0,-999.0,66,-99.99,,,-99.99,,2013-02-28 09:31:00,
2013-02-28 02:41:00,15.0,6.0,30.27,WNW,287,2.0,-999.0,66,-99.99,,,-99.99,,2013-02-28 09:41:00,
2013-02-28 02:52:00,15.0,6.0,30.28,WNW,287,1.0,-999.0,66,-99.99,,,-99.99,,2013-02-28 09:52:00,
2013-02-28 03:01:00,15.0,6.0,30.28,WNW,287,1.0,-999.0,68,-99.99,,,-99.99,,2013-02-28 10:01:00,
2013-02-28 03:11:00,15.0,6.0,30.28,WNW,287,1.0,-999.0,68,-99.99,,,-99.99,,2013-02-28 10:11:00,
2013-02-28 03:21:00,15.0,6.0,30.28,WNW,287,1.0,-999.0,68,-99.99,,,-99.99,,2013-02-28 10:21:00,
2013-02-28 03:31:00,15.0,6.0,30.28,WNW,287,0.0,-999.0,68,-99.99,,,-99.99,,2013-02-28 10:31:00,
2013-02-28 03:41:00,15.0,6.0,30.28,WNW,287,0.0,-999.0,68,-99.99,,,-99.99,,2013-02-28 10:41:00,
2013-02-28 03:52:00,15.0,6.0,30.28,WNW,287,2.0,-999.0,68,-99.99,,,-99.99,,2013-02-28 10:52:00,
2013-02-28 04:01:00,14.0,5.0,30.28,WNW,287,1.0,-999.0,68,-99.99,,,-99.99,,2013-02-28 11:01:00,
2013-02-28 04:11:00,14.0,5.0,30.28,WNW,287,1.0,-999.0,68,-99.99,,,-99.99,,2013-02-28 11:11:00,
2013-02-28 04:21:00,14.0,6.0,30.29,WNW,287,0.0,-999.0,70,-99.99,,,-99.99,,2013-02-28 11:21:00,
2013-02-28 04:31:00,14.0,6.0,30.30,WNW,287,0.0,-999.0,70,-99.99,,,-99.99,,2013-02-28 11:31:00,
2013-02-28 04:41:00,14.0,6.0,30.30,WNW,287,0.0,-999.0,70,-99.99,,,-99.99,,2013-02-28 11:41:00,
2013-02-28 04:52:00,14.0,6.0,30.31,WNW,287,2.0,-999.0,70,-99.99,,,-99.99,,2013-02-28 11:52:00,
2013-02-28 05:01:00,14.0,6.0,30.32,WNW,287,0.0,-999.0,69,-99.99,,,-99.99,,2013-02-28 12:01:00,
2013-02-28 05:11:00,14.0,6.0,30.32,WNW,287,0.0,-999.0,69,-99.99,,,-99.99,,2013-02-28 12:11:00,
2013-02-28 05:21:00,13.0,5.0,30.32,WNW,287,1.0,-999.0,69,-99.99,,,-99.99,,2013-02-28 12:21:00,
2013-02-28 05:31:00,13.0,5.0,30.32,WNW,287,2.0,-999.0,70,-99.99,,,-99.99,,2013-02-28 12:31:00,
2013-02-28 05:42:00,13.0,5.0,30.32,WNW,287,2.0,-999.0,70,-99.99,,,-99.99,,2013-02-28 12:42:00,
2013-02-28 05:52:00,13.0,5.0,30.35,WNW,287,1.0,-999.0,70,-99.99,,,-99.99,,2013-02-28 12:52:00,
2013-02-28 06:01:00,12.0,4.0,30.36,WNW,287,2.0,-999.0,71,-99.99,,,-99.99,,2013-02-28 13:01:00,
2013-02-28 06:11:00,12.0,4.0,30.36,WNW,287,2.0,-999.0,71,-99.99,,,-99.99,,2013-02-28 13:11:00,
2013-02-28 06:21:00,12.0,4.0,30.37,WNW,287,0.0,-999.0,71,-99.99,,,-99.99,,2013-02-28 13:21:00,
2013-02-28 06:31:00,11.0,4.0,30.37,WNW,287,2.0,-999.0,72,-99.99,,,-99.99,,2013-02-28 13:31:00,
2013-02-28 06:41:00,11.0,4.0,30.37,WNW,287,2.0,-999.0,72,-99.99,,,-99.99,,2013-02-28 13:41:00,
2013-02-28 06:52:00,11.0,4.0,30.40,WNW,287,2.0,-999.0,73,-99.99,,,-99.99,,2013-02-28 13:52:00,
2013-02-28 07:01:00,11.0,4.0,30.42,WNW,287,0.0,-999.0,73,-99.99,,,-99.99,,2013-02-28 14:01:00,
2013-02-28 07:11:00,12.0,5.0,30.41,WNW,287,1.0,-999.0,73,-99.99,,,-99.99,,2013-02-28 14:11:00,
2013-02-28 07:21:00,12.0,5.0,30.41,WNW,287,1.0,-999.0,73,-99.99,,,-99.99,,2013-02-28 14:21:00,
2013-02-28 07:31:00,14.0,6.0,30.42,WNW,287,2.0,-999.0,71,-99.99,,,-99.99,,2013-02-28 14:31:00,
2013-02-28 07:41:00,14.0,6.0,30.42,WNW,287,2.0,-999.0,71,-99.99,,,-99.99,,2013-02-28 14:41:00,
2013-02-28 07:52:00,16.0,8.0,30.43,WNW,287,1.0,-999.0,69,-99.99,,,-99.99,,2013-02-28 14:52:00,
2013-02-28 08:01:00,18.0,8.0,30.42,WNW,287,1.0,-999.0,63,-99.99,,,-99.99,,2013-02-28 15:01:00,
2013-02-28 08:11:00,18.0,8.0,30.42,WNW,287,1.0,-999.0,63,-99.99,,,-99.99,,2013-02-28 15:11:00,
2013-02-28 08:21:00,20.0,8.0,30.41,WNW,287,2.0,-999.0,60,-99.99,,,-99.99,,2013-02-28 15:21:00,
2013-02-28 08:31:00,21.0,7.0,30.39,WNW,287,3.0,-999.0,55,-99.99,,,-99.99,,2013-02-28 15:31:00,
2013-02-28 08:41:00,21.0,7.0,30.39,WNW,287,3.0,-999.0,55,-99.99,,,-99.99,,2013-02-28 15:41:00,
2013-02-28 08:52:00,23.0,9.0,30.37,WNW,287,2.0,-999.0,54,-99.99,,,-99.99,,2013-02-28 15:52:00,
2013-02-28 09:01:00,26.0,9.0,30.37,WNW,287,1.0,-999.0,49,-99.99,,,-99.99,,2013-02-28 16:01:00,
2013-02-28 09:11:00,26.0,9.0,30.37,WNW,287,1.0,-999.0,49,-99.99,,,-99.99,,2013-02-28 16:11:00,
2013-02-28 09:21:00,29.0,9.0,30.34,WNW,287,0.0,-999.0,43,-99.99,,,-99.99,,2013-02-28 16:21:00,
2013-02-28 09:31:00,30.0,8.0,30.33,WNW,287,0.0,-999.0,39,-99.99,,,-99.99,,2013-02-28 16:31:00,
2013-02-28 09:42:00,30.0,8.0,30.33,WNW,287,0.0,-999.0,39,-99.99,,,-99.99,,2013-02-28 16:42:00,
2013-02-28 09:52:00,30.0,9.0,30.32,WNW,287,2.0,-999.0,40,-99.99,,,-99.99,,2013-02-28 16:52:00,
2013-02-28 10:01:00,31.0,9.0,30.32,WNW,286,1.0,-999.0,39,-99.99,,,-99.99,,2013-02-28 17:01:00,
2013-02-28 10:11:00,33.0,8.0,30.31,WNW,286,1.0,-999.0,35,-99.99,,,-99.99,,2013-02-28 17:11:00,
2013-02-28 10:21:00,33.0,8.0,30.31,WNW,286,1.0,-999.0,35,-99.99,,,-99.99,,2013-02-28 17:21:00,
2013-02-28 10:31:00,34.0,9.0,30.32,WNW,286,1.0,-999.0,34,-99.99,,,-99.99,,2013-02-28 17:31:00,
2013-02-28 10:41:00,34.0,9.0,30.32,WNW,286,1.0,-999.0,34,-99.99,,,-99.99,,2013-02-28 17:41:00,
2013-02-28 10:52:00,34.0,8.0,30.32,SW,233,3.0,-999.0,33,-99.99,,,-99.99,,2013-02-28 17:52:00,
2013-02-28 11:01:00,35.0,7.0,30.31,SW,216,1.0,-999.0,31,-99.99,,,-99.99,,2013-02-28 18:01:00,
2013-02-28 11:11:00,35.0,7.0,30.31,SW,216,1.0,-999.0,31,-99.99,,,-99.99,,2013-02-28 18:11:00,
2013-02-28 11:21:00,36.0,5.0,30.31,SW,229,1.0,-999.0,27,-99.99,,,-99.99,,2013-02-28 18:21:00,
2013-02-28 11:31:00,36.0,5.0,30.32,SW,229,3.0,-999.0,27,-99.99,,,-99.99,,2013-02-28 18:31:00,
2013-02-28 11:41:00,36.0,5.0,30.32,SW,229,3.0,-999.0,27,-99.99,,,-99.99,,2013-02-28 18:41:00,
2013-02-28 11:52:00,37.0,5.0,30.31,SSW,195,3.0,-999.0,26,-99.99,,,-99.99,,2013-02-28 18:52:00,
2013-02-28 12:01:00,38.0,5.0,30.30,SW,235,3.0,-999.0,25,-99.99,,,-99.99,,2013-02-28 19:01:00,
2013-02-28 12:11:00,38.0,5.0,30.30,SW,235,3.0,-999.0,25,-99.99,,,-99.99,,2013-02-28 19:11:00,
2013-02-28 12:21:00,39.0,6.0,30.28,WSW,255,6.0,-999.0,25,-99.99,,,-99.99,,2013-02-28 19:21:00,
2013-02-28 12:31:00,40.0,8.0,30.33,SW,236,5.0,-999.0,26,-99.99,,,-99.99,,2013-02-28 19:31:00,
2013-02-28 12:41:00,40.0,8.0,30.33,SW,236,5.0,-999.0,26,-99.99,,,-99.99,,2013-02-28 19:41:00,
2013-02-28 12:52:00,41.0,8.0,30.31,SW,225,7.0,-999.0,25,-99.99,,,-99.99,,2013-02-28 19:52:00,
2013-02-28 13:01:00,42.0,7.0,30.28,SW,231,5.0,-999.0,23,-99.99,,,-99.99,,2013-02-28 20:01:00,
2013-02-28 13:11:00,42.0,7.0,30.28,SW,231,5.0,-999.0,23,-99.99,,,-99.99,,2013-02-28 20:11:00,
2013-02-28 13:21:00,44.0,8.0,30.27,SSW,212,6.0,-999.0,22,-99.99,,,-99.99,,2013-02-28 20:21:00,
2013-02-28 13:31:00,46.0,6.0,30.26,SW,234,6.0,-999.0,19,-99.99,,,-99.99,,2013-02-28 20:31:00,
2013-02-28 13:41:00,46.0,6.0,30.26,SW,234,6.0,-999.0,19,-99.99,,,-99.99,,2013-02-28 20:41:00,
2013-02-28 13:52:00,46.0,5.0,30.25,WSW,247,9.0,-999.0,18,-99.99,,,-99.99,,2013-02-28 20:52:00,
2013-02-28 14:01:00,47.0,2.0,30.23,NW,308,10.0,-999.0,15,-99.99,,,-99.99,,2013-02-28 21:01:00,
2013-02-28 14:11:00,47.0,2.0,30.23,NW,308,10.0,-999.0,15,-99.99,,,-99.99,,2013-02-28 21:11:00,
2013-02-28 14:22:00,48.0,3.0,30.23,NNW,327,12.0,-999.0,15,-99.99,,,-99.99,,2013-02-28 21:22:00,
2013-02-28 14:31:00,47.0,2.0,30.24,West,276,15.0,-999.0,15,-99.99,,,-99.99,,2013-02-28 21:31:00,
2013-02-28 14:41:00,47.0,2.0,30.24,West,276,15.0,-999.0,15,-99.99,,,-99.99,,2013-02-28 21:41:00,
2013-02-28 14:52:00,47.0,2.0,30.24,West,276,15.0,-999.0,15,-99.99,,,-99.99,,2013-02-28 21:52:00,
2013-02-28 15:01:00,47.0,0.0,30.24,West,278,16.0,-999.0,14,-99.99,,,-99.99,,2013-02-28 22:01:00,
2013-02-28 15:11:00,47.0,0.0,30.24,West,278,16.0,-999.0,14,-99.99,,,-99.99,,2013-02-28 22:11:00,
2013-02-28 15:21:00,47.0,2.0,30.24,WNW,295,17.0,-999.0,15,-99.99,,,-99.99,,2013-02-28 22:21:00,
2013-02-28 15:31:00,47.0,2.0,30.24,WNW,295,17.0,-999.0,15,-99.99,,,-99.99,,2013-02-28 22:31:00,
2013-02-28 15:41:00,47.0,2.0,30.24,WNW,295,17.0,-999.0,15,-99.99,,,-99.99,,2013-02-28 22:41:00,
2013-02-28 15:52:00,48.0,5.0,30.25,West,280,15.0,-999.0,17,-99.99,,,-99.99,,2013-02-28 22:52:00,
2013-02-28 16:01:00,47.0,4.0,30.27,West,266,14.0,-999.0,17,-99.99,,,-99.99,,2013-02-28 23:01:00,
2013-02-28 16:11:00,47.0,4.0,30.27,West,266,14.0,-999.0,17,-99.99,,,-99.99,,2013-02-28 23:11:00,
2013-02-28 16:21:00,47.0,6.0,30.26,West,278,15.0,-999.0,18,-99.99,,,-99.99,,2013-02-28 23:21:00,
2013-02-28 16:31:00,47.0,6.0,30.27,WNW,290,14.0,-999.0,18,-99.99,,,-99.99,,2013-02-28 23:31:00,
2013-02-28 16:41:00,47.0,6.0,30.27,WNW,290,14.0,-999.0,18,-99.99,,,-99.99,,2013-02-28 23:41:00,
2013-02-28 16:52:00,46.0,6.0,30.27,NW,309,13.0,-999.0,19,-99.99,,,-99.99,,2013-02-28 23:52:00,
2013-02-28 17:01:00,46.0,6.0,30.27,WNW,302,12.0,-999.0,19,-99.99,,,-99.99,,2013-03-01 00:01:00,
2013-02-28 17:11:00,46.0,6.0,30.27,WNW,302,12.0,-999.0,19,-99.99,,,-99.99,,2013-03-01 00:11:00,
2013-02-28 17:22:00,45.0,6.0,30.28,WNW,282,12.0,-999.0,20,-99.99,,,-99.99,,2013-03-01 00:22:00,
2013-02-28 17:32:00,44.0,6.0,30.29,WNW,292,13.0,-999.0,20,-99.99,,,-99.99,,2013-03-01 00:32:00,
2013-02-28 17:41:00,44.0,6.0,30.29,WNW,292,13.0,-999.0,20,-99.99,,,-99.99,,2013-03-01 00:41:00,
2013-02-28 17:51:00,44.0,7.0,30.32,West,273,11.0,-999.0,21,-99.99,,,-99.99,,2013-03-01 00:51:00,
2013-02-28 18:01:00,43.0,7.0,30.32,WNW,284,12.0,-999.0,22,-99.99,,,-99.99,,2013-03-01 01:01:00,
2013-02-28 18:11:00,43.0,7.0,30.32,WNW,284,12.0,-999.0,22,-99.99,,,-99.99,,2013-03-01 01:11:00,
2013-02-28 18:21:00,42.0,8.0,30.33,WNW,290,10.0,-999.0,24,-99.99,,,-99.99,,2013-03-01 01:21:00,
2013-02-28 18:31:00,41.0,9.0,30.33,WNW,285,11.0,-999.0,26,-99.99,,,-99.99,,2013-03-01 01:31:00,
2013-02-28 18:42:00,41.0,9.0,30.33,WNW,285,11.0,-999.0,26,-99.99,,,-99.99,,2013-03-01 01:42:00,
2013-02-28 18:51:00,40.0,9.0,30.34,WNW,295,9.0,-999.0,27,-99.99,,,-99.99,,2013-03-01 01:51:00,
2013-02-28 19:01:00,39.0,9.0,30.35,WNW,295,7.0,-999.0,28,-99.99,,,-99.99,,2013-03-01 02:01:00,
2013-02-28 19:11:00,39.0,9.0,30.37,WNW,292,6.0,-999.0,28,-99.99,,,-99.99,,2013-03-01 02:11:00,
2013-02-28 19:21:00,39.0,9.0,30.37,WNW,292,6.0,-999.0,28,-99.99,,,-99.99,,2013-03-01 02:21:00,
2013-02-28 19:31:00,38.0,9.0,30.37,WNW,291,4.0,-999.0,29,-99.99,,,-99.99,,2013-03-01 02:31:00,
2013-02-28 19:42:00,38.0,9.0,30.37,WNW,291,4.0,-999.0,29,-99.99,,,-99.99,,2013-03-01 02:42:00,
2013-02-28 19:52:00,37.0,9.0,30.32,WNW,292,5.0,-999.0,31,-99.99,,,-99.99,,2013-03-01 02:52:00,
2013-02-28 20:01:00,37.0,10.0,30.33,WNW,291,6.0,-999.0,32,-99.99,,,-99.99,,2013-03-01 03:01:00,
2013-02-28 20:11:00,37.0,10.0,30.33,WNW,291,6.0,-999.0,32,-99.99,,,-99.99,,2013-03-01 03:11:00,
2013-02-28 20:21:00,36.0,10.0,30.34,WNW,288,7.0,-999.0,33,-99.99,,,-99.99,,2013-03-01 03:21:00,
2013-02-28 20:32:00,36.0,10.0,30.34,WNW,295,10.0,-999.0,33,-99.99,,,-99.99,,2013-03-01 03:32:00,
2013-02-28 20:41:00,36.0,10.0,30.34,WNW,295,10.0,-999.0,33,-99.99,,,-99.99,,2013-03-01 03:41:00,
2013-02-28 20:51:00,36.0,10.0,30.29,WNW,289,8.0,-999.0,33,-99.99,,,-99.99,,2013-03-01 03:51:00,
2013-02-28 21:01:00,36.0,10.0,30.29,West,276,9.0,-999.0,33,-99.99,,,-99.99,,2013-03-01 04:01:00,
2013-02-28 21:11:00,36.0,10.0,30.29,West,276,9.0,-999.0,33,-99.99,,,-99.99,,2013-03-01 04:11:00,
2013-02-28 21:21:00,36.0,10.0,30.29,WNW,295,8.0,-999.0,33,-99.99,,,-99.99,,2013-03-01 04:21:00,
2013-02-28 21:31:00,36.0,10.0,30.29,West,276,8.0,-999.0,34,-99.99,,,-99.99,,2013-03-01 04:31:00,
2013-02-28 21:41:00,36.0,10.0,30.29,West,276,8.0,-999.0,34,-99.99,,,-99.99,,2013-03-01 04:41:00,
2013-02-28 21:51:00,35.0,10.0,30.28,West,276,4.0,-999.0,35,-99.99,,,-99.99,,2013-03-01 04:51:00,
2013-02-28 22:01:00,35.0,9.0,30.28,West,279,6.0,-999.0,34,-99.99,,,-99.99,,2013-03-01 05:01:00,
2013-02-28 22:11:00,35.0,9.0,30.28,West,279,6.0,-999.0,34,-99.99,,,-99.99,,2013-03-01 05:11:00,
2013-02-28 22:22:00,36.0,10.0,30.28,West,281,7.0,-999.0,33,-99.99,,,-99.99,,2013-03-01 05:22:00,
2013-02-28 22:32:00,35.0,9.0,30.28,WNW,286,6.0,-999.0,34,-99.99,,,-99.99,,2013-03-01 05:32:00,
2013-02-28 22:41:00,35.0,9.0,30.28,WNW,286,6.0,-999.0,34,-99.99,,,-99.99,,2013-03-01 05:41:00,
2013-02-28 22:52:00,35.0,9.0,30.25,West,276,6.0,-999.0,34,-99.99,,,-99.99,,2013-03-01 05:52:00,
2013-02-28 23:01:00,35.0,9.0,30.26,WNW,291,6.0,-999.0,33,-99.99,,,-99.99,,2013-03-01 06:01:00,
2013-02-28 23:11:00,35.0,9.0,30.26,WNW,291,6.0,-999.0,33,-99.99,,,-99.99,,2013-03-01 06:11:00,
2013-02-28 23:21:00,35.0,9.0,30.26,WNW,291,8.0,-999.0,33,-99.99,,,-99.99,,2013-03-01 06:21:00,
2013-02-28 23:32:00,35.0,8.0,30.26,WNW,284,9.0,-999.0,32,-99.99,,,-99.99,,2013-03-01 06:32:00,
2013-02-28 23:42:00,35.0,8.0,30.26,WNW,284,9.0,-999.0,32,-99.99,,,-99.99,,2013-03-01 06:42:00,
2013-02-28 23:52:00,35.0,8.0,30.26,West,278,9.0,-999.0,32,-99.99,,,-99.99,,2013-03-01 06:52:00,